sat.trackr.live / text

‹ back to catalog

STARLINK-3883

NORAD 52493 · 2022-049AU

PAYLOAD ACTIVE UNKNOWN

§ Identity

Operator
Country
US
Launch date
2022-05-06
Launch site
AFETR
Launch vehicle
Mass (kg)
RCS (m²)

Purposes: comms

External: N2YO · Heavens-Above · Gunter

§ Orbital elements

Epoch: 2026-05-25T01:46:20.453376Z

Period
95.44 min
Inclination
53.2145°
Eccentricity
0.0001552
Mean motion
15.08840201 rev/d
Perigee alt
538.7 km
Apogee alt
540.8 km
Semi-major
6,917.9 km
B*
-3.5449e-6
RAAN
66.2178°
Arg perigee
89.2948°
Mean anomaly
270.8222°
Rev number
22,392

§ Raw data

STARLINK-38831 52493U 22049AU  26145.07384784 -.00000344  00000+0 -35449-5 0  99912 52493  53.2145  66.2178 0001552  89.2948 270.8222 15.08840201223928

JSON: /api/v1/satellites/52493 · /tle

For live sub-satellite position, see the globe view (requires WebGL).

§ Visibility from observer

Set your observer location to see the next 7 days of passes ≥ 10°. The values pass through the URL so the page stays shareable.

No JS? Fill the form by hand. The geolocation button needs JavaScript.